Time,TemperatureF,DewpointF,PressureIn,WindDirection,WindDirectionDegrees,WindSpeedMPH,WindSpeedGustMPH,Humidity,HourlyPrecipIn,Conditions,Clouds,dailyrainin,SoftwareType,DateUTC
2013-08-12 00:02:00,73.7,73.0,30.07,South,191,1.0,1.0,97,0.00,,,0.01,weatherlink.com 1.10,2013-08-12 04:02:00,
2013-08-12 00:17:00,73.7,73.0,30.08,SW,225,0.0,1.0,97,0.00,,,0.01,weatherlink.com 1.10,2013-08-12 04:17:00,
2013-08-12 00:32:00,73.6,73.0,30.07,SW,225,0.0,1.0,97,0.00,,,0.00,weatherlink.com 1.10,2013-08-12 04:32:00,
2013-08-12 00:47:00,73.6,73.0,30.07,East,90,0.0,2.0,97,0.00,,,0.00,weatherlink.com 1.10,2013-08-12 04:47:00,
2013-08-12 01:02:00,73.8,73.0,30.07,South,189,0.0,4.0,97,0.00,,,0.00,weatherlink.com 1.10,2013-08-12 05:02:00,
2013-08-12 01:17:00,73.8,73.0,30.07,East,96,0.0,2.0,96,0.00,,,0.00,weatherlink.com 1.10,2013-08-12 05:17:00,
2013-08-12 01:32:00,73.8,73.0,30.06,East,96,0.0,1.0,96,0.00,,,0.00,weatherlink.com 1.10,2013-08-12 05:32:00,
2013-08-12 01:47:00,73.6,72.0,30.05,ESE,105,0.0,1.0,95,0.00,,,0.00,weatherlink.com 1.10,2013-08-12 05:47:00,
2013-08-12 02:02:00,73.2,72.0,30.06,SSE,166,0.0,0.0,96,0.00,,,0.00,weatherlink.com 1.10,2013-08-12 06:02:00,
2013-08-12 02:17:00,73.0,72.0,30.06,SSE,166,0.0,0.0,96,0.00,,,0.00,weatherlink.com 1.10,2013-08-12 06:17:00,
2013-08-12 02:32:00,72.8,72.0,30.06,SW,219,0.0,0.0,96,0.00,,,0.00,weatherlink.com 1.10,2013-08-12 06:32:00,
2013-08-12 02:47:00,72.6,72.0,30.05,SW,219,0.0,0.0,97,0.00,,,0.00,weatherlink.com 1.10,2013-08-12 06:47:00,
2013-08-12 03:02:00,72.6,72.0,30.05,SW,218,0.0,1.0,97,0.00,,,0.00,weatherlink.com 1.10,2013-08-12 07:02:00,
2013-08-12 03:17:00,72.5,72.0,30.05,SW,218,0.0,0.0,97,0.00,,,0.00,weatherlink.com 1.10,2013-08-12 07:17:00,
2013-08-12 03:32:00,72.3,71.0,30.05,SW,218,0.0,0.0,97,0.00,,,0.00,weatherlink.com 1.10,2013-08-12 07:32:00,
2013-08-12 03:47:00,72.2,71.0,30.04,SW,218,0.0,0.0,97,0.00,,,0.00,weatherlink.com 1.10,2013-08-12 07:47:00,
2013-08-12 04:02:00,72.0,71.0,30.05,SW,218,0.0,0.0,97,0.00,,,0.00,weatherlink.com 1.10,2013-08-12 08:02:00,
2013-08-12 04:17:00,71.9,71.0,30.04,SW,215,0.0,0.0,97,0.00,,,0.00,weatherlink.com 1.10,2013-08-12 08:17:00,
2013-08-12 04:32:00,71.9,71.0,30.04,SW,215,0.0,0.0,98,0.00,,,0.00,weatherlink.com 1.10,2013-08-12 08:32:00,
2013-08-12 04:47:00,71.9,71.0,30.05,SW,215,0.0,0.0,98,0.00,,,0.00,weatherlink.com 1.10,2013-08-12 08:47:00,
2013-08-12 05:02:00,71.9,71.0,30.04,SW,215,0.0,0.0,98,0.00,,,0.00,weatherlink.com 1.10,2013-08-12 09:02:00,
2013-08-12 05:17:00,71.7,71.0,30.05,SW,215,0.0,0.0,98,0.00,,,0.00,weatherlink.com 1.10,2013-08-12 09:17:00,
2013-08-12 05:33:00,71.5,71.0,30.05,SSW,192,0.0,1.0,98,0.00,,,0.00,weatherlink.com 1.10,2013-08-12 09:33:00,
2013-08-12 05:49:00,71.6,71.0,30.05,SSW,192,0.0,1.0,98,0.00,,,0.00,weatherlink.com 1.10,2013-08-12 09:49:00,
2013-08-12 06:03:00,71.6,71.0,30.05,SSW,192,0.0,1.0,98,0.00,,,0.00,weatherlink.com 1.10,2013-08-12 10:03:00,
2013-08-12 06:18:00,71.4,71.0,30.06,SSW,192,0.0,0.0,98,0.00,,,0.00,weatherlink.com 1.10,2013-08-12 10:18:00,
2013-08-12 06:33:00,71.2,71.0,30.07,SSW,192,0.0,0.0,98,0.00,,,0.00,weatherlink.com 1.10,2013-08-12 10:33:00,
2013-08-12 06:48:00,71.1,71.0,30.07,SSW,192,0.0,0.0,98,0.00,,,0.00,weatherlink.com 1.10,2013-08-12 10:48:00,
2013-08-12 07:03:00,71.0,70.0,30.07,SSW,192,0.0,0.0,98,0.00,,,0.00,weatherlink.com 1.10,2013-08-12 11:03:00,
2013-08-12 07:18:00,71.0,70.0,30.06,SSW,192,0.0,0.0,98,0.00,,,0.00,weatherlink.com 1.10,2013-08-12 11:18:00,
2013-08-12 07:33:00,71.2,71.0,30.06,SSW,192,0.0,0.0,98,0.00,,,0.00,weatherlink.com 1.10,2013-08-12 11:33:00,
2013-08-12 07:48:00,71.8,72.0,30.06,SSW,192,0.0,0.0,99,0.00,,,0.00,weatherlink.com 1.10,2013-08-12 11:48:00,
2013-08-12 08:03:00,72.6,72.0,30.06,SSW,192,0.0,0.0,99,0.00,,,0.00,weatherlink.com 1.10,2013-08-12 12:03:00,
2013-08-12 08:18:00,73.3,73.0,30.06,SSW,192,0.0,0.0,99,0.00,,,0.00,weatherlink.com 1.10,2013-08-12 12:18:00,
2013-08-12 08:33:00,73.9,74.0,30.06,SSW,192,0.0,0.0,99,0.00,,,0.00,weatherlink.com 1.10,2013-08-12 12:33:00,
2013-08-12 08:48:00,74.2,74.0,30.06,SW,224,0.0,0.0,98,0.00,,,0.00,weatherlink.com 1.10,2013-08-12 12:48:00,
2013-08-12 09:03:00,75.3,73.0,30.06,SW,224,0.0,0.0,93,0.00,,,0.00,weatherlink.com 1.10,2013-08-12 13:03:00,
2013-08-12 09:18:00,76.8,74.0,30.06,SW,224,0.0,0.0,90,0.00,,,0.00,weatherlink.com 1.10,2013-08-12 13:18:00,
2013-08-12 09:33:00,78.3,75.0,30.06,WSW,254,0.0,0.0,89,0.00,,,0.00,weatherlink.com 1.10,2013-08-12 13:33:00,
2013-08-12 09:48:00,79.7,75.0,30.06,WSW,254,0.0,0.0,84,0.00,,,0.00,weatherlink.com 1.10,2013-08-12 13:48:00,
2013-08-12 10:03:00,80.8,74.0,30.06,ENE,63,0.0,0.0,80,0.00,,,0.00,weatherlink.com 1.10,2013-08-12 14:03:00,
2013-08-12 10:18:00,81.8,75.0,30.06,East,88,0.0,0.0,79,0.00,,,0.00,weatherlink.com 1.10,2013-08-12 14:18:00,
2013-08-12 10:33:00,83.1,75.0,30.06,NE,44,0.0,0.0,77,0.00,,,0.00,weatherlink.com 1.10,2013-08-12 14:33:00,
2013-08-12 10:48:00,83.6,75.0,30.06,SE,131,0.0,2.0,74,0.00,,,0.00,weatherlink.com 1.10,2013-08-12 14:48:00,
2013-08-12 11:03:00,84.3,74.0,30.06,NE,56,2.0,4.0,72,0.00,,,0.00,weatherlink.com 1.10,2013-08-12 15:03:00,
2013-08-12 11:18:00,85.0,74.0,30.06,SE,131,1.0,3.0,69,0.00,,,0.00,weatherlink.com 1.10,2013-08-12 15:18:00,
2013-08-12 11:33:00,85.5,74.0,30.06,NE,35,0.0,4.0,69,0.00,,,0.00,weatherlink.com 1.10,2013-08-12 15:33:00,
2013-08-12 11:48:00,86.0,73.0,30.06,SE,146,2.0,3.0,66,0.00,,,0.00,weatherlink.com 1.10,2013-08-12 15:48:00,
2013-08-12 12:03:00,86.5,75.0,30.05,NE,38,2.0,3.0,68,0.00,,,0.00,weatherlink.com 1.10,2013-08-12 16:03:00,
2013-08-12 12:18:00,87.5,74.0,30.05,North,8,0.0,4.0,65,0.00,,,0.00,weatherlink.com 1.10,2013-08-12 16:18:00,
2013-08-12 12:33:00,88.3,74.0,30.05,SE,140,1.0,6.0,63,0.00,,,0.00,weatherlink.com 1.10,2013-08-12 16:33:00,
2013-08-12 12:49:00,88.9,76.0,30.05,WSW,252,1.0,2.0,66,0.00,,,0.00,weatherlink.com 1.10,2013-08-12 16:49:00,
2013-08-12 13:04:00,89.6,75.0,30.04,SE,141,0.0,4.0,62,0.00,,,0.00,weatherlink.com 1.10,2013-08-12 17:04:00,
2013-08-12 13:19:00,89.9,76.0,30.04,East,87,0.0,4.0,63,0.00,,,0.00,weatherlink.com 1.10,2013-08-12 17:19:00,
2013-08-12 13:34:00,90.4,75.0,30.03,SE,126,1.0,5.0,61,0.00,,,0.00,weatherlink.com 1.10,2013-08-12 17:34:00,
2013-08-12 13:49:00,90.2,75.0,30.03,East,81,1.0,4.0,62,0.00,,,0.00,weatherlink.com 1.10,2013-08-12 17:49:00,
2013-08-12 14:04:00,91.2,76.0,30.02,ENE,78,2.0,4.0,62,0.00,,,0.00,weatherlink.com 1.10,2013-08-12 18:04:00,
2013-08-12 14:19:00,91.6,75.0,30.01,East,82,0.0,4.0,59,0.00,,,0.00,weatherlink.com 1.10,2013-08-12 18:19:00,
2013-08-12 14:34:00,91.4,74.0,30.00,SE,130,2.0,4.0,57,0.00,,,0.00,weatherlink.com 1.10,2013-08-12 18:34:00,
2013-08-12 14:49:00,91.1,75.0,29.99,NE,52,0.0,7.0,60,0.00,,,0.00,weatherlink.com 1.10,2013-08-12 18:49:00,
2013-08-12 15:04:00,92.4,76.0,29.98,ESE,116,0.0,4.0,59,0.00,,,0.00,weatherlink.com 1.10,2013-08-12 19:04:00,
2013-08-12 15:19:00,92.0,75.0,29.98,East,81,1.0,5.0,58,0.00,,,0.00,weatherlink.com 1.10,2013-08-12 19:19:00,
2013-08-12 15:34:00,90.8,76.0,29.98,NNE,30,0.0,3.0,62,0.00,,,0.00,weatherlink.com 1.10,2013-08-12 19:34:00,
2013-08-12 15:49:00,89.3,76.0,29.96,NE,55,0.0,2.0,65,0.00,,,0.00,weatherlink.com 1.10,2013-08-12 19:49:00,
2013-08-12 16:04:00,88.9,75.0,29.98,SE,127,1.0,4.0,63,0.00,,,0.00,weatherlink.com 1.10,2013-08-12 20:04:00,
2013-08-12 16:19:00,87.8,75.0,29.97,SE,138,0.0,5.0,65,0.00,,,0.00,weatherlink.com 1.10,2013-08-12 20:19:00,
2013-08-12 16:34:00,87.0,75.0,29.98,WSW,245,1.0,3.0,68,0.00,,,0.00,weatherlink.com 1.10,2013-08-12 20:34:00,
2013-08-12 16:49:00,85.1,73.0,29.98,WNW,288,0.0,5.0,68,0.00,,,0.00,weatherlink.com 1.10,2013-08-12 20:49:00,
2013-08-12 17:04:00,82.6,71.0,29.99,SW,222,0.0,6.0,69,0.00,,,0.00,weatherlink.com 1.10,2013-08-12 21:04:00,
2013-08-12 17:19:00,78.9,72.0,30.01,NNE,15,1.0,13.0,79,0.28,,,0.28,weatherlink.com 1.10,2013-08-12 21:19:00,
2013-08-12 17:34:00,76.8,74.0,29.99,WNW,292,0.0,3.0,92,0.31,,,0.31,weatherlink.com 1.10,2013-08-12 21:34:00,
2013-08-12 17:49:00,76.7,74.0,29.99,West,281,0.0,4.0,92,0.31,,,0.31,weatherlink.com 1.10,2013-08-12 21:49:00,
2013-08-12 18:04:00,77.1,75.0,29.98,WSW,248,1.0,2.0,94,0.31,,,0.31,weatherlink.com 1.10,2013-08-12 22:04:00,
2013-08-12 18:19:00,77.2,76.0,29.98,NNE,27,0.0,1.0,95,0.03,,,0.31,weatherlink.com 1.10,2013-08-12 22:19:00,
2013-08-12 18:34:00,77.4,76.0,29.97,NE,53,0.0,3.0,95,0.00,,,0.31,weatherlink.com 1.10,2013-08-12 22:34:00,
2013-08-12 18:49:00,77.3,76.0,29.96,ESE,105,0.0,0.0,95,0.00,,,0.31,weatherlink.com 1.10,2013-08-12 22:49:00,
2013-08-12 19:04:00,77.4,76.0,29.95,ESE,105,0.0,0.0,96,0.00,,,0.31,weatherlink.com 1.10,2013-08-12 23:04:00,
2013-08-12 19:19:00,77.3,76.0,29.95,ESE,105,0.0,0.0,95,0.00,,,0.31,weatherlink.com 1.10,2013-08-12 23:19:00,
2013-08-12 19:34:00,77.2,76.0,29.95,ESE,105,0.0,0.0,95,0.00,,,0.31,weatherlink.com 1.10,2013-08-12 23:34:00,
2013-08-12 19:49:00,77.1,76.0,29.95,ESE,105,0.0,0.0,96,0.00,,,0.31,weatherlink.com 1.10,2013-08-12 23:49:00,
2013-08-12 20:04:00,77.0,76.0,29.96,ESE,105,0.0,1.0,96,0.00,,,0.31,weatherlink.com 1.10,2013-08-13 00:04:00,
2013-08-12 20:19:00,77.1,76.0,29.96,SW,223,0.0,0.0,96,0.00,,,0.31,weatherlink.com 1.10,2013-08-13 00:19:00,
2013-08-12 20:34:00,76.8,76.0,29.96,SW,223,0.0,0.0,96,0.00,,,0.31,weatherlink.com 1.10,2013-08-13 00:34:00,
2013-08-12 20:49:00,76.6,75.0,29.97,SW,223,0.0,0.0,96,0.00,,,0.31,weatherlink.com 1.10,2013-08-13 00:49:00,
2013-08-12 21:04:00,76.3,75.0,29.97,SW,223,0.0,0.0,96,0.00,,,0.31,weatherlink.com 1.10,2013-08-13 01:04:00,
2013-08-12 21:19:00,76.1,75.0,29.98,SW,223,0.0,0.0,97,0.00,,,0.31,weatherlink.com 1.10,2013-08-13 01:19:00,
2013-08-12 21:34:00,76.0,75.0,29.98,SW,223,0.0,0.0,97,0.00,,,0.31,weatherlink.com 1.10,2013-08-13 01:34:00,
2013-08-12 21:49:00,75.8,75.0,29.98,SW,223,0.0,0.0,97,0.00,,,0.31,weatherlink.com 1.10,2013-08-13 01:49:00,
2013-08-12 22:04:00,75.6,75.0,29.98,SW,223,0.0,0.0,97,0.00,,,0.31,weatherlink.com 1.10,2013-08-13 02:04:00,
2013-08-12 22:19:00,75.4,75.0,29.98,SW,223,0.0,0.0,97,0.00,,,0.31,weatherlink.com 1.10,2013-08-13 02:19:00,
2013-08-12 22:34:00,75.1,74.0,29.98,SW,223,0.0,0.0,97,0.00,,,0.31,weatherlink.com 1.10,2013-08-13 02:34:00,
2013-08-12 22:50:00,75.0,74.0,29.97,SW,223,0.0,0.0,97,0.00,,,0.31,weatherlink.com 1.10,2013-08-13 02:50:00,
2013-08-12 23:04:00,74.9,74.0,29.97,SSW,193,0.0,0.0,97,0.00,,,0.31,weatherlink.com 1.10,2013-08-13 03:04:00,
2013-08-12 23:20:00,74.7,74.0,29.97,SSW,193,0.0,0.0,97,0.00,,,0.31,weatherlink.com 1.10,2013-08-13 03:20:00,
2013-08-12 23:35:00,74.5,74.0,29.97,SSE,156,0.0,1.0,97,0.00,,,0.31,weatherlink.com 1.10,2013-08-13 03:35:00,